• In Österreich
  • Länderverzeichnis
  • Für 7 Tage
  • Wassertemperatur
  • Satellitenkarten
  • Wetterkarte
  • News
  • Widgets
  • user-avatar
    Anmelden

    Stündliche Wetter Ketou

    Heute, 16 Oktober, Dienstag

    Zeit Temperatur Niederschläge Wind Luftdruck Luftfeuchtigkeit
    00:00 +26°C° 0 mm 1 m/S 747 mmHg 94%
    01:00 +25°C° 0 mm 1 m/S 747 mmHg 94%
    02:00 +25°C° 0 mm 1 m/S 746 mmHg 94%
    03:00 +23°C° 0 mm 0 m/S 746 mmHg 95%
    04:00 +23°C° 0 mm 0 m/S 746 mmHg 95%
    05:00 +23°C° 0 mm 0 m/S 747 mmHg 95%
    06:00 +23°C° 0 mm 0 m/S 747 mmHg 94%
    07:00 +25°C° 0 mm 0 m/S 747 mmHg 87%
    08:00 +27°C° 0 mm 0 m/S 747 mmHg 80%
    09:00 +29°C° 0 mm 0 m/S 748 mmHg 72%
    10:00 +30°C° 0 mm 0 m/S 747 mmHg 66%
    11:00 +34°C° 0 mm 1 m/S 747 mmHg 60%
    12:00 +35°C° 0 mm 1 m/S 747 mmHg 54%
    13:00 +35°C° 0 mm 1 m/S 746 mmHg 55%
    14:00 +34°C° 0 mm 1 m/S 745 mmHg 56%
    15:00 +34°C° 0 mm 1 m/S 745 mmHg 57%
    16:00 +32°C° 0.3 mm 1 m/S 745 mmHg 62%
    17:00 +31°C° 0.3 mm 1 m/S 745 mmHg 68%
    18:00 +30°C° 0.3 mm 1 m/S 746 mmHg 73%
    19:00 +29°C° 0.9 mm 2 m/S 746 mmHg 78%
    20:00 +28°C° 0.9 mm 2 m/S 747 mmHg 82%
    21:00 +27°C° 0.9 mm 2 m/S 747 mmHg 87%
    22:00 +27°C° 0.1 mm 2 m/S 747 mmHg 88%
    23:00 +26°C° 0.1 mm 2 m/S 747 mmHg 90%

    Morgen, 17 Oktober, Mittwoch

    Zeit Temperatur Niederschläge Wind Luftdruck Luftfeuchtigkeit
    00:00 +26°C° 0.1 mm 2 m/S 747 mmHg 91%
    01:00 +26°C° 0 mm 2 m/S 746 mmHg 92%
    02:00 +25°C° 0 mm 2 m/S 746 mmHg 93%
    03:00 +25°C° 0 mm 2 m/S 745 mmHg 93%
    04:00 +25°C° 0 mm 2 m/S 745 mmHg 94%
    05:00 +25°C° 0 mm 1 m/S 745 mmHg 94%
    06:00 +25°C° 0 mm 1 m/S 746 mmHg 95%
    07:00 +27°C° 0 mm 2 m/S 746 mmHg 89%
    08:00 +28°C° 0 mm 2 m/S 747 mmHg 82%
    09:00 +30°C° 0 mm 2 m/S 747 mmHg 75%
    10:00 +31°C° 0 mm 2 m/S 747 mmHg 71%
    11:00 +32°C° 0 mm 2 m/S 746 mmHg 66%
    12:00 +34°C° 0 mm 2 m/S 746 mmHg 61%
    13:00 +34°C° 0.6 mm 2 m/S 745 mmHg 62%
    14:00 +34°C° 0.6 mm 2 m/S 745 mmHg 63%
    15:00 +34°C° 0.6 mm 2 m/S 744 mmHg 64%
    16:00 +31°C° 0.6 mm 2 m/S 744 mmHg 70%
    17:00 +30°C° 0.6 mm 2 m/S 745 mmHg 77%
    18:00 +28°C° 0.6 mm 1 m/S 745 mmHg 84%
    19:00 +28°C° 0 mm 1 m/S 746 mmHg 86%
    20:00 +27°C° 0 mm 2 m/S 746 mmHg 88%
    21:00 +27°C° 0 mm 2 m/S 747 mmHg 90%
    22:00 +26°C° 0 mm 2 m/S 746 mmHg 91%
    23:00 +26°C° 0 mm 2 m/S 746 mmHg 92%

    übermorgen, 18 Oktober, Donnerstag

    Zeit Temperatur Niederschläge Wind Luftdruck Luftfeuchtigkeit
    00:00 +26°C° 0 mm 2 m/S 746 mmHg 93%
    01:00 +26°C° 0 mm 2 m/S 745 mmHg 93%
    02:00 +26°C° 0 mm 2 m/S 745 mmHg 93%
    03:00 +25°C° 0 mm 2 m/S 744 mmHg 94%
    04:00 +25°C° 0 mm 2 m/S 744 mmHg 94%
    05:00 +25°C° 0 mm 2 m/S 745 mmHg 95%
    06:00 +25°C° 0 mm 1 m/S 745 mmHg 96%
    07:00 +27°C° 0 mm 2 m/S 745 mmHg 88%
    08:00 +29°C° 0 mm 2 m/S 746 mmHg 80%
    09:00 +30°C° 0 mm 2 m/S 746 mmHg 73%
    10:00 +32°C° 0 mm 2 m/S 746 mmHg 67%
    11:00 +34°C° 0 mm 2 m/S 745 mmHg 61%
    12:00 +35°C° 0 mm 2 m/S 744 mmHg 55%
    13:00 +35°C° 0.7 mm 2 m/S 744 mmHg 57%
    14:00 +34°C° 0.7 mm 2 m/S 743 mmHg 60%
    15:00 +34°C° 0.7 mm 2 m/S 743 mmHg 62%
    16:00 +31°C° 0.2 mm 2 m/S 743 mmHg 69%
    17:00 +30°C° 0.2 mm 2 m/S 743 mmHg 76%
    18:00 +28°C° 0.2 mm 2 m/S 744 mmHg 82%
    19:00 +28°C° 0 mm 2 m/S 744 mmHg 84%
    20:00 +27°C° 0 mm 2 m/S 745 mmHg 87%
    21:00 +27°C° 0 mm 2 m/S 746 mmHg 89%
    22:00 +27°C° 0 mm 1 m/S 746 mmHg 90%
    23:00 +26°C° 0 mm 1 m/S 746 mmHg 92%

    19 Oktober, Freitag

    Zeit Temperatur Niederschläge Wind Luftdruck Luftfeuchtigkeit
    00:00 +26°C° 0 mm 1 m/S 745 mmHg 93%
    01:00 +26°C° 0 mm 1 m/S 745 mmHg 94%
    02:00 +26°C° 0 mm 1 m/S 745 mmHg 95%
    03:00 +25°C° 0 mm 1 m/S 744 mmHg 95%
    04:00 +25°C° 0 mm 1 m/S 744 mmHg 96%
    05:00 +25°C° 0 mm 1 m/S 745 mmHg 96%
    06:00 +25°C° 0 mm 2 m/S 745 mmHg 97%
    07:00 +27°C° 0 mm 2 m/S 745 mmHg 89%
    08:00 +29°C° 0 mm 2 m/S 746 mmHg 81%
    09:00 +30°C° 0 mm 2 m/S 746 mmHg 73%
    10:00 +32°C° 0 mm 2 m/S 746 mmHg 67%
    11:00 +34°C° 0 mm 2 m/S 745 mmHg 61%
    12:00 +35°C° 0 mm 2 m/S 744 mmHg 55%
    13:00 +35°C° 0 mm 2 m/S 744 mmHg 55%
    14:00 +35°C° 0 mm 2 m/S 743 mmHg 56%
    15:00 +34°C° 0 mm 1 m/S 743 mmHg 56%
    16:00 +32°C° 0.4 mm 2 m/S 743 mmHg 64%
    17:00 +30°C° 0.4 mm 2 m/S 744 mmHg 71%
    18:00 +29°C° 0.4 mm 2 m/S 744 mmHg 79%
    19:00 +28°C° 0.1 mm 2 m/S 744 mmHg 82%
    20:00 +27°C° 0.1 mm 2 m/S 745 mmHg 86%
    21:00 +27°C° 0.1 mm 2 m/S 745 mmHg 89%
    22:00 +27°C° 0 mm 2 m/S 745 mmHg 90%
    23:00 +26°C° 0 mm 2 m/S 745 mmHg 92%

    20 Oktober, Samstag

    Zeit Temperatur Niederschläge Wind Luftdruck Luftfeuchtigkeit
    00:00 +26°C° 0 mm 1 m/S 745 mmHg 93%
    01:00 +26°C° 0 mm 1 m/S 744 mmHg 94%
    02:00 +25°C° 0 mm 1 m/S 744 mmHg 95%
    03:00 +25°C° 0 mm 1 m/S 743 mmHg 95%
    04:00 +25°C° 0 mm 1 m/S 744 mmHg 96%
    05:00 +25°C° 0 mm 1 m/S 744 mmHg 96%
    06:00 +25°C° 0 mm 1 m/S 745 mmHg 96%
    07:00 +27°C° 0 mm 1 m/S 745 mmHg 88%
    08:00 +29°C° 0 mm 2 m/S 746 mmHg 80%
    09:00 +31°C° 0 mm 2 m/S 746 mmHg 72%
    10:00 +32°C° 0 mm 2 m/S 745 mmHg 65%
    11:00 +34°C° 0 mm 1 m/S 745 mmHg 58%
    12:00 +36°C° 0 mm 1 m/S 744 mmHg 52%
    13:00 +35°C° 0.2 mm 1 m/S 743 mmHg 53%
    14:00 +35°C° 0.2 mm 1 m/S 743 mmHg 55%
    15:00 +34°C° 0.2 mm 1 m/S 743 mmHg 57%
    16:00 +32°C° 0.2 mm 1 m/S 743 mmHg 65%
    17:00 +31°C° 0.2 mm 2 m/S 743 mmHg 72%
    18:00 +29°C° 0.2 mm 2 m/S 744 mmHg 79%
    19:00 +28°C° 0.5 mm 2 m/S 744 mmHg 83%
    20:00 +28°C° 0.5 mm 2 m/S 744 mmHg 86%
    21:00 +27°C° 0.5 mm 2 m/S 745 mmHg 90%
    22:00 +26°C° 0 mm 2 m/S 745 mmHg 91%
    23:00 +26°C° 0 mm 2 m/S 744 mmHg 92%

    21 Oktober, Sonntag

    Zeit Temperatur Niederschläge Wind Luftdruck Luftfeuchtigkeit
    00:00 +26°C° 0 mm 2 m/S 744 mmHg 93%
    01:00 +26°C° 0 mm 2 m/S 744 mmHg 94%
    02:00 +25°C° 0 mm 1 m/S 743 mmHg 95%
    03:00 +25°C° 0 mm 1 m/S 743 mmHg 95%
    04:00 +25°C° 0 mm 1 m/S 743 mmHg 96%
    05:00 +25°C° 0 mm 1 m/S 744 mmHg 96%
    06:00 +25°C° 0 mm 1 m/S 744 mmHg 96%
    07:00 +27°C° 0 mm 1 m/S 745 mmHg 89%
    08:00 +28°C° 0 mm 1 m/S 745 mmHg 81%
    09:00 +30°C° 0 mm 2 m/S 745 mmHg 74%
    10:00 +32°C° 0 mm 1 m/S 745 mmHg 68%
    11:00 +33°C° 0 mm 1 m/S 744 mmHg 63%
    12:00 +35°C° 0 mm 1 m/S 743 mmHg 57%
    13:00 +35°C° 0 mm 1 m/S 743 mmHg 55%
    14:00 +35°C° 0 mm 1 m/S 742 mmHg 53%
    15:00 +35°C° 0 mm 1 m/S 742 mmHg 51%
    16:00 +34°C° 0 mm 1 m/S 742 mmHg 57%
    17:00 +32°C° 0 mm 1 m/S 742 mmHg 62%
    18:00 +31°C° 0 mm 1 m/S 742 mmHg 68%
    19:00 +30°C° 0.2 mm 2 m/S 743 mmHg 73%
    20:00 +29°C° 0.2 mm 2 m/S 743 mmHg 77%
    21:00 +28°C° 0.2 mm 2 m/S 744 mmHg 82%
    22:00 +27°C° 0 mm 2 m/S 743 mmHg 85%
    23:00 +27°C° 0 mm 2 m/S 743 mmHg 88%
    Mehr zeigen